Weather History for Aurora, NE

Change the Weather History Date:

Tuesday, May 21, 2013

  Actual Average Record
Temperature  
Mean Temperature 57 °F -  
Max Temperature 64 °F 75 °F 95 °F (2005)
Min Temperature 50 °F 52 °F 35 °F (1968)
Degree Days  
Heating Degree Days 8    
Growing Degree Days 7 (Base 50)    
Moisture  
Dew Point 47 °F    
Average Humidity 71    
Maximum Humidity 86    
Minimum Humidity 54    
Precipitation  
Precipitation 0.00 in - - ()
Sea Level Pressure  
Sea Level Pressure 29.74 in    
Wind  
Wind Speed 17 mph (WNW)    
Max Wind Speed 26 mph    
Max Gust Speed 36 mph    
Visibility 10 miles    
Events      
Averages and records for this station are not official NWS values.
T = Trace of Precipitation, MM = Missing Value Source: NWS Daily Summary

Daily Weather History Graph

Daily Weather History Graph

Search for Another Location

Airport:

Trip Planner

Search our weather history database for the weather conditions in past years. The results will help you decide how hot, cold, wet, or windy it might be!

Date:

Astronomy

May. 21, 2013 Rise Set
Actual Time 6:09 AM CDT 8:48 PM CDT
Civil Twilight 5:37 AM CDT 9:20 PM CDT
Nautical Twilight 4:57 AM CDT 10:00 PM CDT
Astronomical Twilight 4:12 AM CDT 10:45 PM CDT
Moon 5:02 PM CDT (5/21) 3:39 AM CDT (5/21)
Length of Visible Light 15h 43m
Length of Day
14h 39m
Waxing Gibbous, 84% of the Moon is Illuminated
May 21
Waxing Gibbous
May 24
Full
May 31
Last Quarter
Jun 8
New
Jun 16
First Quarter

Hourly Weather History & Observations

Time (CDT) Temp. Dew Point Humidity Pressure Visibility Wind Dir Wind Speed Gust Speed Precip Events Conditions
12:15 AM 58.3 °F 53.4 °F 84% 29.70 in 10.0 mi WNW 15.0 mph - N/A   Overcast
12:35 AM 58.1 °F 53.6 °F 85% 29.70 in 10.0 mi WNW 12.7 mph - N/A   Overcast
12:55 AM 58.1 °F 53.6 °F 85% 29.70 in 10.0 mi WNW 13.8 mph - N/A   Overcast
1:15 AM 57.0 °F 52.5 °F 85% 29.70 in 10.0 mi WNW 12.7 mph - N/A   Scattered Clouds
1:35 AM 56.5 °F 52.2 °F 85% 29.71 in 10.0 mi WNW 12.7 mph - N/A   Clear
1:55 AM 56.3 °F 52.2 °F 86% 29.72 in 10.0 mi West 10.4 mph - N/A   Mostly Cloudy
2:15 AM 56.3 °F 51.4 °F 84% 29.72 in 10.0 mi West 13.8 mph 19.6 mph N/A   Mostly Cloudy
2:35 AM 55.9 °F 50.9 °F 83% 29.72 in 10.0 mi West 16.1 mph 21.9 mph N/A   Scattered Clouds
2:55 AM 55.9 °F 50.7 °F 83% 29.72 in 10.0 mi West 17.3 mph 20.7 mph N/A   Mostly Cloudy
3:15 AM 55.0 °F 49.3 °F 81% 29.71 in 10.0 mi West 13.8 mph - N/A   Scattered Clouds
3:35 AM 55.6 °F 49.8 °F 81% 29.71 in 10.0 mi WNW 16.1 mph 25.3 mph N/A   Mostly Cloudy
3:55 AM 54.9 °F 49.1 °F 81% 29.70 in 10.0 mi West 15.0 mph 20.7 mph N/A   Mostly Cloudy
4:15 AM 54.5 °F 48.4 °F 80% 29.70 in 10.0 mi West 19.6 mph 26.5 mph N/A   Mostly Cloudy
4:35 AM 54.7 °F 47.5 °F 77% 29.71 in 10.0 mi West 19.6 mph 26.5 mph N/A   Overcast
4:55 AM 54.1 °F 46.8 °F 76% 29.71 in 10.0 mi WNW 23.0 mph 28.8 mph N/A   Mostly Cloudy
5:15 AM 53.8 °F 46.8 °F 77% 29.71 in 10.0 mi WNW 18.4 mph 23.0 mph N/A   Mostly Cloudy
5:35 AM 53.1 °F 46.9 °F 80% 29.71 in 10.0 mi West 15.0 mph 21.9 mph N/A   Mostly Cloudy
5:55 AM 52.3 °F 46.8 °F 81% 29.71 in 10.0 mi West 12.7 mph - N/A   Scattered Clouds
6:15 AM 51.8 °F 46.8 °F 83% 29.71 in 10.0 mi West 11.5 mph - N/A   Clear
6:35 AM 51.8 °F 46.8 °F 83% 29.71 in 10.0 mi West 13.8 mph - N/A   Clear
6:55 AM 52.0 °F 47.3 °F 84% 29.73 in 10.0 mi West 11.5 mph - N/A   Clear
7:15 AM 52.3 °F 47.5 °F 84% 29.73 in 10.0 mi West 13.8 mph - N/A   Clear
7:35 AM 53.6 °F 48.0 °F 81% 29.74 in 10.0 mi West 16.1 mph - N/A   Clear
7:55 AM 54.0 °F 47.3 °F 78% 29.74 in 10.0 mi West 18.4 mph - N/A   Clear
8:15 AM 54.9 °F 47.7 °F 77% 29.74 in 10.0 mi West 15.0 mph 23.0 mph N/A   Scattered Clouds
8:35 AM 55.9 °F 47.3 °F 73% 29.74 in 10.0 mi WNW 19.6 mph 26.5 mph N/A   Mostly Cloudy
8:55 AM 56.5 °F 46.0 °F 68% 29.75 in 10.0 mi WNW 20.7 mph 28.8 mph N/A   Mostly Cloudy
9:15 AM 56.3 °F 45.5 °F 67% 29.74 in 10.0 mi WNW 19.6 mph 32.2 mph N/A   Overcast
9:35 AM 55.8 °F 45.0 °F 67% 29.75 in 10.0 mi WNW 21.9 mph 26.5 mph N/A   Overcast
9:55 AM 56.8 °F 45.0 °F 64% 29.74 in 10.0 mi WNW 21.9 mph 26.5 mph N/A   Overcast
10:15 AM 56.8 °F 45.1 °F 65% 29.74 in 10.0 mi WNW 21.9 mph 28.8 mph N/A   Overcast
10:35 AM 57.4 °F 44.8 °F 63% 29.75 in 10.0 mi WNW 21.9 mph 29.9 mph N/A   Overcast
10:55 AM 58.1 °F 44.4 °F 60% 29.75 in 10.0 mi NW 24.2 mph 31.1 mph N/A   Overcast
11:15 AM 57.7 °F 45.0 °F 62% 29.74 in 10.0 mi West 21.9 mph 27.6 mph N/A   Overcast
11:35 AM 58.6 °F 44.6 °F 60% 29.74 in 10.0 mi WNW 21.9 mph 27.6 mph N/A   Overcast
11:55 AM 57.9 °F 44.6 °F 61% 29.73 in 10.0 mi WNW 19.6 mph 31.1 mph N/A   Overcast
12:15 PM 59.9 °F 44.6 °F 57% 29.72 in 10.0 mi WNW 25.3 mph 32.2 mph N/A   Overcast
12:35 PM 60.4 °F 44.6 °F 56% 29.72 in 10.0 mi WNW 24.2 mph 35.7 mph N/A   Overcast
12:55 PM 61.2 °F 45.1 °F 56% 29.73 in 10.0 mi WNW 23.0 mph 33.4 mph N/A   Overcast
1:15 PM 61.7 °F 46.0 °F 56% 29.73 in 10.0 mi NW 21.9 mph 31.1 mph N/A   Overcast
1:35 PM 60.8 °F 45.5 °F 57% 29.74 in 10.0 mi WNW 23.0 mph 28.8 mph N/A   Overcast
1:55 PM 61.3 °F 45.7 °F 56% 29.75 in 10.0 mi NW 24.2 mph 31.1 mph N/A   Overcast
2:15 PM 62.2 °F 45.9 °F 55% 29.74 in 10.0 mi NW 24.2 mph 31.1 mph N/A   Overcast
2:35 PM 63.0 °F 45.9 °F 54% 29.74 in 10.0 mi NW 26.5 mph 34.5 mph N/A   Overcast
2:55 PM 63.1 °F 46.4 °F 54% 29.74 in 10.0 mi NW 24.2 mph 35.7 mph N/A   Overcast
3:15 PM 63.5 °F 46.8 °F 54% 29.74 in 10.0 mi NW 20.7 mph 29.9 mph N/A   Overcast
3:35 PM 63.5 °F 46.8 °F 54% 29.74 in 10.0 mi WNW 19.6 mph 27.6 mph N/A   Overcast
3:55 PM 61.7 °F 46.9 °F 58% 29.75 in 10.0 mi NW 16.1 mph 25.3 mph N/A   Overcast
4:15 PM 62.1 °F 47.3 °F 58% 29.74 in 10.0 mi NW 19.6 mph - N/A   Overcast
4:35 PM 61.5 °F 47.5 °F 60% 29.74 in 10.0 mi NW 17.3 mph 23.0 mph N/A   Overcast
4:55 PM 61.0 °F 47.7 °F 62% 29.74 in 10.0 mi NW 16.1 mph 21.9 mph N/A   Overcast
5:15 PM 60.4 °F 48.4 °F 64% 29.75 in 10.0 mi NW 13.8 mph - N/A   Overcast
5:35 PM 61.0 °F 48.0 °F 62% 29.76 in 10.0 mi NW 16.1 mph - N/A   Overcast
5:55 PM 61.3 °F 47.8 °F 61% 29.76 in 10.0 mi NW 19.6 mph 23.0 mph N/A   Overcast
6:15 PM 60.8 °F 48.0 °F 63% 29.76 in 10.0 mi NW 16.1 mph - N/A   Overcast
6:35 PM 60.4 °F 47.3 °F 62% 29.75 in 10.0 mi NW 21.9 mph 25.3 mph N/A   Overcast
6:55 PM 60.4 °F 47.7 °F 63% 29.76 in 10.0 mi NW 18.4 mph - N/A   Overcast
7:15 PM 59.4 °F 48.6 °F 67% 29.77 in 10.0 mi NW 17.3 mph - N/A   Overcast
7:35 PM 59.2 °F 48.9 °F 69% 29.76 in 10.0 mi NW 15.0 mph 20.7 mph N/A   Overcast
7:55 PM 58.8 °F 48.6 °F 69% 29.77 in 10.0 mi NW 18.4 mph 28.8 mph N/A   Overcast
8:15 PM 58.3 °F 48.6 °F 70% 29.78 in 10.0 mi NW 15.0 mph - N/A   Overcast
8:35 PM 58.1 °F 47.1 °F 67% 29.79 in 10.0 mi NW 18.4 mph 21.9 mph N/A   Overcast
8:55 PM 57.2 °F 47.5 °F 70% 29.79 in 10.0 mi NW 17.3 mph 24.2 mph N/A   Overcast
9:15 PM 57.0 °F 46.9 °F 69% 29.79 in 10.0 mi NW 18.4 mph 25.3 mph N/A   Overcast
9:35 PM 55.9 °F 47.3 °F 73% 29.78 in 10.0 mi NW 18.4 mph - N/A   Mostly Cloudy
9:55 PM 55.4 °F 46.9 °F 73% 29.78 in 10.0 mi NNW 13.8 mph - N/A   Scattered Clouds
10:15 PM 54.5 °F 46.4 °F 74% 29.79 in 10.0 mi NW 21.9 mph 28.8 mph N/A   Clear
10:35 PM 53.2 °F 46.8 °F 79% 29.79 in 10.0 mi NNW 23.0 mph 27.6 mph N/A   Clear
10:55 PM 52.0 °F 46.4 °F 81% 29.79 in 10.0 mi NW 16.1 mph 26.5 mph N/A   Clear
11:15 PM 51.8 °F 46.6 °F 82% 29.79 in 10.0 mi NW 15.0 mph 23.0 mph N/A   Clear
11:35 PM 51.3 °F 46.6 °F 84% 29.78 in 10.0 mi NW 13.8 mph - N/A   Clear
11:55 PM 50.9 °F 46.2 °F 84% 29.79 in 10.0 mi NW 20.7 mph 26.5 mph N/A   Clear